Flag for Germany Weather past 2 weeks in Zwickau, Saxony, Germany

Now
38 °F

Clear.


Feels Like: 38 °F
Forecast: 26 / 60 °F
Wind: 1 mph from West

Location: Gera-Leumnitz


UV Index: 3 (Moderate)

Visibility: 28 mi


Pressure: 30.45 "Hg

Humidity: 70%

Dew point: 29 °F

Location of ZwickauLocation

Historic Weather in Zwickau

°F

Zwickau temperature yesterday

Maximum temperature yesterday: 49 °F (at 5:00 PM)
Minimum temperature yesterday: 36 °F (at 3:00 AM)
Average temperature yesterday: 42 °F

Past Weeks' High & Low Weather Summary

 TemperatureHumidityPressure
High71 °F (Apr 3, 3:00 PM)97% (Apr 6, 3:00 AM)30.46 "Hg (Apr 6, 3:00 AM)
Low36 °F (Apr 16, 3:00 AM)31% (Apr 3, 4:00 PM)29.64 "Hg (Apr 3, 4:00 PM)
Average51 °F72%30.01 "Hg
* Reported Apr 1 10:00 PM — Apr 16 10:00 PM, Zwickau, Weather by CustomWeather, © 2014

Note: Actual official high and low records may vary slightly from our data, if they occured in-between our weather recording intervals... More about our weather records

Advertising

Historic Weather Conditions — Data for Previous 24 hours

 ConditionsComfort  
Time TempWeatherWind HumidityBarometerVisibility
10:00 PM
Apr 16
41 °FClear.1 mph60%30.44 "Hg40 mi
9:00 PM43 °FPassing clouds.1 mph57%30.43 "Hg37 mi
8:00 PM46 °FPassing clouds.2 mph51%30.42 "Hg37 mi
7:00 PM47 °FPassing clouds.3 mph50%30.42 "Hg37 mi
6:00 PM47 °FPassing clouds.3 mph46%30.42 "Hg37 mi
5:00 PM49 °FPassing clouds.5 mph41%30.43 "Hg34 mi
4:00 PM49 °FPassing clouds.3 mph48%30.43 "Hg22 mi
3:00 PM48 °FScattered clouds.3 mph58%30.44 "Hg19 mi
2:00 PM47 °FScattered clouds.3 mph59%30.45 "Hg16 mi
1:00 PM45 °FScattered clouds.2 mph69%30.46 "Hg12 mi
12:00 PM42 °FOvercast.3 mph82%30.46 "Hg12 mi
11:00 AM40 °FOvercast.3 mph85%30.46 "Hg11 mi
10:00 AM39 °FFog.2 mph91%30.45 "Hg4 mi
9:00 AM38 °FFog.3 mph91%30.44 "Hg4 mi
8:00 AM38 °FLow clouds.3 mph90%30.42 "Hg11 mi
7:00 AM37 °FOvercast.2 mph92%30.40 "Hg11 mi
6:00 AM37 °FOvercast.2 mph92%30.39 "Hg9 mi
5:00 AM37 °FFog.2 mph94%30.38 "Hg4 mi
4:00 AM36 °FFog.3 mph96%30.36 "Hg4 mi
3:00 AM36 °FFog.3 mph95%30.35 "Hg4 mi
12:00 AM37 °FOvercast.3 mph96%30.31 "Hg8 mi
Weather by CustomWeather, © 2014

See weather overview